Temp
77 76 76 76 75 76 76 76 76 78 78 80 79 79 79 80 80 81 81 80 80 79 78 77 77 77 80 77 77 77 77 76 76 78 77 78 78 78 82 81 79 78
76 77 77 77 75 76 75 77 77 77 77 78 80 80 80 80 81 81 81 80 80 81 79 78 78 78 78 78 77 77 76 77 76 82 79 77 78 79 80 80 81 80
76 76 77 76 76 76 77 77 76 76 77 79 80 80 81 82 81 81 81 81 80 81 79 78 78 78 79 78 77 78 79 76 77 78 78 77 77 76 78 80 80 81
76 77 78 78 78 78 78 76 76 76 77 77 79 82 83 84 83 82 80 81 80 80 80 80 79 80 79 79 77 77 78 77 78 77 77 77 76 77 78 77 79 80
77 77 78 78 78 78 78 77 78 78 78 78 80 80 81 81 82 82 81 81 79 80 80 80 79 80 79 78 78 77 77 77 77 76 76 76 76 77 77 77 76 78
78 77 78 78 78 78 78 78 79 79 80 80 80 81 81 81 82 82 82 81 81 81 82 81 81 81 81 79 78 77 78 78 78 76 76 76 77 78 78 77 76 76
78 78 78 78 79 79 79 79 80 80 80 81 80 80 81 81 81 82 82 82 82 81 82 81 80 80 80 80 77 77 77 77 77 76 76 76 76 77 78 78 77 77
78 78 79 79 79 79 79 80 81 80 81 81 81 80 81 82 81 83 83 83 83 82 82 82 80 79 81 81 79 77 78 80 79 77 76 76 75 75 76 78 78 77
78 78 78 79 79 79 80 81 81 81 81 81 81 82 82 82 83 83 83 83 83 83 82 82 81 80 81 80 80 79 78 78 79 78 77 77 77 76 77 77 77 77
78 79 78 78 78 79 80 81 82 82 82 82 83 83 84 83 83 84 83 81 82 82 82 82 82 81 81 81 80 80 79 78 78 79 79 79 79 78 77 76 76 76
78 79 78 77 78 79 79 79 79 80 78 79 79 79 81 83 83 82 82 81 83 83 83 82 83 82 81 81 82 81 80 80 79 79 79 79 79 78 79 77 77 77
77 78 78 78 78 77 79 78 79 80 79 78 78 78 79 81 82 84 84 82 83 84 84 83 83 83 82 81 82 82 81 80 80 80 80 80 80 79 79 78 77 77
76 77 78 77 78 78 77 76 77 77 78 79 79 78 78 80 82 82 81 81 82 83 84 83 82 82 81 81 81 81 81 80 80 80 80 80 81 80 80 78 78 78
76 77 78 77 76 76 75 75 77 77 77 78 78 78 79 78 80 81 81 81 80 80 80 81 80 81 80 81 81 81 80 80 80 80 80 79 80 79 79 78 78 78
76 77 76 76 76 74 74 74 74 75 75 76 77 78 80 81 79 80 81 81 81 80 79 79 79 80 81 81 81 81 82 81 80 80 79 79 78 79 78 78 78 78
75 75 74 73 73 73 73 74 74 74 74 74 74 75 77 78 78 78 80 81 80 79 79 78 78 79 82 82 82 81 81 83 81 80 79 78 78 77 77 77 77 78
74 73 72 72 72 72 72 73 73 73 73 73 73 73 73 75 78 79 78 79 79 79 78 78 80 81 80 75 75 78 82 79 79 79 78 78 77 77 76 76 77 77
74 73 72 72 72 72 72 73 73 73 72 72 72 73 73 75 74 76 77 78 77 78 78 79 79 80 75 73 73 73 78 81 80 79 77 76 77 77 77 77 77 77
74 73 72 71 71 72 72 72 72 72 72 71 71 72 74 75 75 75 76 78 78 77 78 79 78 78 72 72 72 72 71 78 79 78 77 76 77 77 77 76 76 76
74 74 74 73 72 72 72 71 70 71 71 70 71 71 71 72 74 75 75 75 76 76 76 78 79 80 73 70 69 69 70 73 77 78 77 77 76 77 77 76 76 76
72 72 72 70 69 70 71 71 71 71 72 71 71 71 71 70 71 71 73 74 74 74 74 76 79 75 69 68 66 66 67 71 73 75 75 75 76 76 77 77 77 77
71 71 71 70 69 69 69 69 69 70 70 70 70 69 70 69 70 70 71 72 73 73 74 74 76 70 69 70 68 67 69 73 71 71 71 72 73 74 75 76 76 76
71 71 71 71 69 68 68 68 67 67 68 69 68 69 69 69 69 69 71 72 71 71 71 72 73 71 66 66 66 65 70 71 70 70 70 70 71 73 74 74 75 75
71 71 71 70 69 69 68 68 68 68 68 70 69 68 68 69 69 69 69 70 71 71 71 71 72 72 67 64 63 63 69 72 70 69 70 69 70 72 73 73 75 78
71 71 69 69 68 68 67 67 67 67 68 69 69 69 69 69 70 70 69 69 69 70 75 74 72 72 66 63 62 61 65 70 69 69 68 69 70 72 72 72 73 75
71 71 69 69 67 67 67 67 68 68 67 68 69 70 69 69 69 69 68 69 70 71 71 72 71 72 72 64 61 60 61 69 70 69 68 69 70 71 71 71 70 71
MSLP
1014.95 1015.11 1015.31 1015.43 1015.51 1015.55 1015.75 1015.99 1016.11 1016.19 1016.31 1016.31 1016.55 1016.51 1016.55 1016.51 1016.47 1016.59 1016.67 1016.79 1016.91 1017.07 1017.19 1017.27 1017.35 1017.47 1017.51 1017.51 1017.55 1017.71 1017.87 1017.91 1017.91 1017.91 1017.99 1018.03 1018.07 1018.07 1018.15 1018.07 1018.07 1018.15
1014.91 1014.99 1015.11 1015.23 1015.39 1015.43 1015.55 1015.63 1015.83 1015.91 1016.07 1016.11 1016.11 1016.15 1016.15 1016.23 1016.31 1016.39 1016.59 1016.75 1016.83 1016.95 1016.99 1017.15 1017.23 1017.35 1017.43 1017.51 1017.55 1017.75 1017.87 1017.91 1018.03 1017.75 1017.99 1017.99 1017.91 1017.91 1018.03 1017.99 1017.95 1017.79
1014.91 1015.07 1015.15 1015.31 1015.39 1015.39 1015.43 1015.47 1015.63 1015.71 1015.79 1015.79 1015.83 1015.91 1015.99 1015.91 1016.19 1016.27 1016.39 1016.59 1016.79 1016.87 1016.95 1017.03 1017.11 1017.19 1017.27 1017.35 1017.47 1017.63 1017.79 1017.91 1018.03 1017.79 1017.83 1017.83 1017.71 1017.87 1017.83 1017.83 1017.87 1017.83
1014.83 1014.87 1014.99 1015.11 1015.15 1015.23 1015.27 1015.47 1015.59 1015.71 1015.71 1015.79 1015.83 1015.75 1015.67 1015.71 1015.87 1016.15 1016.31 1016.43 1016.67 1016.79 1016.79 1016.87 1016.99 1017.03 1017.11 1017.23 1017.39 1017.59 1017.59 1017.67 1017.63 1017.67 1017.83 1017.71 1017.67 1017.67 1017.71 1017.67 1017.79 1017.79
1014.67 1014.79 1014.79 1014.87 1014.95 1015.03 1015.19 1015.47 1015.59 1015.63 1015.71 1015.67 1015.55 1015.55 1015.63 1015.67 1015.83 1015.99 1016.15 1016.31 1016.47 1016.63 1016.71 1016.79 1016.79 1016.87 1016.95 1017.11 1017.27 1017.55 1017.55 1017.63 1017.51 1017.59 1017.75 1017.83 1017.59 1017.63 1017.55 1017.63 1017.79 1017.91
1014.43 1014.47 1014.59 1014.75 1014.87 1015.07 1015.23 1015.31 1015.39 1015.47 1015.51 1015.63 1015.55 1015.39 1015.51 1015.51 1015.67 1015.79 1015.95 1016.19 1016.31 1016.43 1016.51 1016.55 1016.67 1016.67 1016.71 1016.91 1017.11 1017.27 1017.39 1017.51 1017.43 1017.47 1017.67 1017.75 1017.59 1017.39 1017.51 1017.59 1017.75 1017.91
1014.35 1014.43 1014.59 1014.63 1014.79 1014.87 1015.07 1015.11 1015.11 1015.15 1015.19 1015.19 1015.23 1015.39 1015.31 1015.51 1015.63 1015.67 1015.75 1015.91 1016.07 1016.19 1016.31 1016.39 1016.51 1016.59 1016.51 1016.67 1016.91 1017.07 1017.11 1017.15 1017.19 1017.31 1017.55 1017.55 1017.51 1017.51 1017.35 1017.47 1017.59 1017.71
1014.11 1014.19 1014.35 1014.51 1014.71 1014.79 1014.87 1014.87 1014.83 1014.87 1014.87 1014.95 1015.19 1015.15 1015.15 1015.31 1015.39 1015.39 1015.47 1015.63 1015.83 1015.95 1016.03 1016.07 1016.19 1016.27 1016.27 1016.39 1016.71 1016.87 1016.95 1016.87 1016.99 1017.15 1017.35 1017.39 1017.39 1017.55 1017.39 1017.31 1017.35 1017.51
1013.83 1014.07 1014.23 1014.39 1014.59 1014.59 1014.67 1014.59 1014.55 1014.55 1014.55 1014.83 1014.95 1014.95 1014.83 1014.95 1015.07 1015.15 1015.19 1015.31 1015.51 1015.59 1015.75 1015.87 1015.95 1016.07 1016.03 1016.15 1016.35 1016.51 1016.67 1016.71 1016.67 1016.83 1017.07 1017.23 1017.35 1017.31 1017.27 1017.15 1017.35 1017.39
1013.75 1013.79 1014.03 1014.19 1014.39 1014.31 1014.39 1014.27 1014.23 1014.27 1014.27 1014.51 1014.59 1014.63 1014.75 1014.71 1014.71 1014.79 1014.95 1015.11 1015.23 1015.35 1015.43 1015.55 1015.67 1015.79 1015.87 1015.91 1016.03 1016.11 1016.27 1016.39 1016.43 1016.55 1016.63 1016.75 1016.87 1016.91 1016.95 1017.07 1017.15 1017.31
1013.51 1013.59 1013.87 1014.03 1014.11 1014.07 1014.07 1014.03 1014.03 1014.07 1014.07 1014.19 1014.31 1014.51 1014.55 1014.59 1014.63 1014.55 1014.71 1014.87 1015.07 1015.07 1015.11 1015.23 1015.31 1015.39 1015.59 1015.63 1015.63 1015.63 1015.75 1015.91 1016.03 1016.19 1016.27 1016.31 1016.35 1016.43 1016.47 1016.63 1016.79 1016.91
1013.35 1013.43 1013.55 1013.67 1013.75 1013.79 1013.79 1013.75 1013.79 1013.91 1013.99 1014.07 1014.11 1014.31 1014.39 1014.47 1014.55 1014.43 1014.39 1014.51 1014.55 1014.59 1014.63 1014.71 1014.75 1014.91 1015.11 1015.23 1015.27 1015.27 1015.35 1015.47 1015.55 1015.71 1015.83 1015.91 1015.95 1015.95 1016.03 1016.15 1016.35 1016.43
1013.19 1013.11 1013.07 1013.23 1013.35 1013.47 1013.47 1013.55 1013.59 1013.67 1013.79 1013.91 1013.83 1013.95 1014.11 1014.27 1014.23 1014.27 1014.11 1014.11 1014.15 1014.15 1014.23 1014.31 1014.47 1014.51 1014.63 1014.75 1014.83 1014.91 1015.03 1015.19 1015.31 1015.43 1015.51 1015.55 1015.51 1015.51 1015.55 1015.67 1015.79 1015.91
1012.95 1012.79 1012.83 1012.87 1012.95 1013.03 1013.19 1013.31 1013.35 1013.43 1013.51 1013.51 1013.63 1013.79 1013.91 1013.95 1014.03 1014.03 1013.87 1013.83 1013.83 1013.91 1013.95 1014.03 1014.19 1014.27 1014.31 1014.31 1014.39 1014.51 1014.67 1014.83 1014.95 1015.11 1015.23 1015.27 1015.23 1015.15 1015.23 1015.35 1015.39 1015.47
1012.67 1012.67 1012.59 1012.67 1012.79 1012.91 1013.03 1013.19 1013.27 1013.31 1013.31 1013.39 1013.47 1013.51 1013.47 1013.51 1013.59 1013.71 1013.83 1013.79 1013.67 1013.71 1013.83 1013.87 1013.99 1014.07 1014.03 1014.03 1014.15 1014.19 1014.19 1014.43 1014.59 1014.75 1014.87 1015.03 1015.03 1014.99 1014.95 1015.03 1015.07 1015.11
1012.39 1012.43 1012.51 1012.59 1012.71 1012.75 1012.87 1013.03 1013.11 1013.11 1013.23 1013.39 1013.47 1013.39 1013.31 1013.27 1013.31 1013.35 1013.51 1013.59 1013.67 1013.59 1013.59 1013.75 1013.83 1013.71 1013.63 1013.59 1013.59 1013.71 1013.91 1013.99 1014.11 1014.27 1014.43 1014.59 1014.75 1014.87 1014.83 1014.79 1014.83 1014.83
1012.27 1012.39 1012.35 1012.31 1012.31 1012.63 1012.87 1013.03 1013.07 1012.99 1012.99 1013.07 1013.19 1013.27 1013.27 1013.19 1013.15 1013.27 1013.31 1013.27 1013.35 1013.43 1013.59 1013.63 1013.55 1013.35 1013.31 1013.43 1013.43 1013.43 1013.59 1013.83 1013.99 1014.07 1014.03 1014.15 1014.31 1014.47 1014.67 1014.63 1014.59 1014.55
1012.27 1012.31 1012.27 1012.23 1012.27 1012.75 1012.91 1012.83 1012.87 1012.95 1013.03 1013.15 1013.19 1013.27 1013.23 1013.19 1013.31 1013.27 1013.19 1013.19 1013.23 1013.35 1013.51 1013.47 1013.31 1013.07 1013.07 1013.19 1013.19 1013.19 1013.23 1013.39 1013.55 1013.79 1013.91 1013.91 1013.87 1013.95 1014.03 1014.15 1014.27 1014.35
1012.03 1012.27 1012.39 1012.47 1012.39 1012.31 1012.71 1013.15 1013.11 1013.03 1013.07 1013.23 1013.27 1013.15 1013.11 1013.23 1013.15 1013.15 1013.19 1013.07 1013.15 1013.35 1013.39 1013.19 1013.15 1012.91 1012.99 1013.03 1012.95 1012.91 1012.91 1012.99 1013.11 1013.23 1013.51 1013.67 1013.63 1013.59 1013.63 1013.75 1013.87 1014.07
1011.95 1012.03 1012.35 1012.67 1012.87 1012.95 1012.83 1012.87 1013.15 1013.19 1013.07 1013.15 1013.31 1013.27 1013.19 1013.11 1012.95 1012.95 1012.99 1013.11 1013.11 1013.15 1013.11 1012.99 1012.91 1012.75 1012.71 1012.75 1012.75 1012.75 1012.71 1012.83 1012.87 1012.95 1013.03 1013.15 1013.23 1013.27 1013.35 1013.39 1013.43 1013.63
1012.07 1012.11 1012.47 1013.23 1013.51 1013.35 1013.15 1012.99 1012.99 1012.79 1012.59 1012.59 1012.67 1012.83 1013.07 1013.23 1013.23 1013.23 1013.19 1013.11 1013.03 1012.99 1013.07 1013.07 1012.87 1012.63 1012.67 1012.67 1012.71 1012.79 1012.87 1012.99 1012.91 1012.87 1012.91 1012.91 1012.87 1012.83 1012.87 1012.95 1012.99 1013.03
1012.07 1012.15 1012.47 1013.19 1013.71 1013.87 1013.87 1013.83 1013.87 1013.63 1013.31 1012.99 1012.95 1012.87 1012.95 1013.19 1013.47 1013.63 1013.75 1013.39 1012.95 1012.95 1013.07 1013.11 1012.83 1012.67 1012.67 1012.63 1012.59 1012.63 1012.67 1012.75 1012.91 1013.07 1013.15 1013.19 1013.11 1012.95 1012.79 1012.67 1012.67 1012.79
1011.95 1012.11 1012.15 1012.39 1012.87 1013.47 1013.71 1013.83 1014.19 1014.63 1014.63 1014.39 1014.55 1014.47 1014.39 1014.43 1014.51 1014.35 1013.87 1013.27 1013.11 1013.15 1013.31 1013.31 1013.11 1012.83 1012.79 1012.71 1012.67 1012.67 1012.67 1012.63 1012.79 1013.23 1013.79 1014.03 1013.91 1013.43 1013.07 1012.79 1012.63 1012.59
1011.79 1011.87 1011.99 1012.03 1012.15 1012.31 1012.47 1012.71 1012.91 1013.15 1013.47 1013.63 1014.03 1014.15 1014.15 1013.95 1013.75 1013.43 1013.03 1012.99 1013.11 1013.23 1013.23 1013.35 1013.15 1012.87 1012.75 1012.67 1012.59 1012.55 1012.51 1012.59 1013.11 1013.63 1013.87 1013.95 1013.59 1013.03 1012.67 1012.51 1012.43 1012.35
1011.55 1011.71 1011.87 1011.99 1012.15 1012.23 1012.27 1012.43 1012.51 1012.55 1012.55 1012.55 1012.63 1012.67 1012.75 1012.67 1012.71 1012.87 1012.95 1012.91 1012.87 1012.91 1012.83 1012.95 1012.91 1012.71 1012.59 1012.63 1012.55 1012.47 1012.47 1012.59 1012.95 1013.35 1013.63 1013.47 1013.03 1012.63 1012.31 1012.39 1012.35 1012.11
1011.43 1011.67 1011.83 1011.99 1012.11 1012.19 1012.23 1012.23 1012.27 1012.31 1012.35 1012.43 1012.47 1012.51 1012.59 1012.63 1012.71 1012.87 1013.03 1012.99 1012.83 1012.83 1012.79 1012.71 1012.75 1012.55 1012.35 1012.31 1012.35 1012.31 1012.35 1012.43 1012.59 1013.07 1013.59 1013.59 1013.11 1012.91 1012.83 1012.43 1012.15 1011.91
Wind_Speed
8 6 7 6 6 5 5 5 5 7 7 7 8 8 8 7 7 7 7 6 6 5 5 5 4 4 4 3 3 3 3 3 3 3 4 4 4 3 4 4 3 3
8 7 6 5 5 4 4 4 5 6 7 7 7 7 7 7 8 7 7 7 7 7 6 6 6 5 5 4 4 3 3 3 4 3 5 4 4 3 4 4 5 4
7 7 8 7 7 6 5 4 4 3 5 6 7 6 7 7 8 7 6 7 7 8 7 6 6 6 6 5 5 5 5 4 5 4 4 4 3 3 4 4 4 4
8 8 8 8 7 7 5 4 4 3 3 3 6 6 8 8 8 8 7 7 7 7 7 6 7 6 6 6 5 6 5 5 5 4 4 4 3 3 4 3 3 5
9 8 7 7 6 6 5 5 5 5 4 4 3 5 6 7 8 8 8 8 7 7 6 7 7 7 6 6 6 6 6 6 5 4 5 5 4 3 4 3 3 4
7 7 6 6 6 6 6 7 6 5 5 4 4 3 6 6 8 8 8 8 7 8 8 7 7 8 7 7 6 6 6 6 6 4 5 5 6 5 3 4 4 4
8 7 7 6 6 7 7 7 6 6 6 5 3 4 4 6 7 7 8 8 9 8 9 8 8 8 7 7 6 7 6 6 6 5 6 6 5 6 5 5 5 5
9 7 7 6 7 7 8 8 7 6 6 5 5 4 4 5 6 7 7 8 8 8 8 9 9 9 9 8 8 7 7 6 7 6 6 7 5 6 6 6 6 6
9 8 8 8 9 8 9 8 7 6 5 6 6 5 4 5 6 8 8 9 9 9 9 9 9 9 9 8 9 9 9 8 7 8 8 9 8 8 8 6 6 7
9 9 9 9 9 8 9 9 8 7 6 6 6 6 6 5 6 7 7 8 10 10 10 10 9 9 9 9 9 9 9 9 9 9 9 9 9 9 8 7 8 7
10 10 10 10 10 8 9 9 8 7 6 6 5 4 3 4 5 6 6 7 9 11 11 11 11 10 10 10 9 9 10 10 10 10 10 10 10 10 9 8 8 8
9 9 10 11 10 9 9 8 8 7 6 5 5 6 5 5 6 6 6 7 8 10 10 11 12 11 11 11 11 10 10 10 10 11 11 11 10 10 10 8 8 8
10 10 9 9 9 8 6 6 7 7 7 7 6 6 6 6 7 8 7 5 6 8 9 10 11 11 11 11 11 10 10 11 11 11 11 10 10 10 10 9 9 8
10 9 8 8 8 7 6 6 6 7 7 7 5 6 6 6 7 7 6 4 4 4 4 6 7 9 10 11 10 10 9 9 10 11 11 11 10 10 9 9 9 9
8 7 7 7 7 7 7 7 7 7 7 7 7 7 7 8 7 7 6 6 5 5 4 4 6 8 8 9 10 10 9 10 10 10 10 10 10 10 9 8 8 8
6 6 7 7 7 8 8 7 6 6 5 4 5 6 7 6 6 6 6 7 6 6 6 5 6 5 8 14 12 9 9 9 9 10 10 10 10 9 8 8 8 8
6 6 6 7 6 4 4 6 6 6 6 5 5 5 6 5 5 6 6 6 6 6 6 6 6 5 9 12 13 13 8 7 8 9 9 10 10 10 9 9 8 8
6 6 5 5 4 5 6 5 6 6 5 4 4 5 5 5 6 7 7 6 5 5 6 7 6 8 12 13 14 14 12 8 7 7 7 8 9 10 9 9 9 9
5 7 7 6 6 6 5 6 5 5 5 4 6 6 3 4 6 6 7 6 6 7 8 7 7 9 11 13 13 12 12 9 6 7 7 8 8 9 9 9 9 8
4 5 7 6 4 3 4 3 2 5 6 4 4 3 2 2 3 4 4 4 5 5 6 6 7 9 12 13 13 13 13 9 6 7 7 8 8 8 7 8 9 9
3 3 4 5 3 1 4 5 5 7 7 6 5 4 2 3 4 4 4 4 4 3 2 3 3 3 5 8 10 10 8 5 5 4 5 5 6 7 8 8 9 9
4 4 4 7 7 6 6 6 5 6 6 6 6 6 6 5 6 6 8 6 4 3 3 5 5 6 6 4 1 2 5 3 3 3 3 3 5 5 5 6 6 7
5 5 4 6 9 11 11 10 8 8 8 6 6 6 6 6 7 7 7 5 3 3 3 4 5 6 7 6 4 4 3 2 2 4 5 7 7 6 6 5 5 5
6 6 5 4 4 3 3 3 4 5 7 9 9 9 9 9 8 6 3 2 3 3 3 4 5 6 8 9 9 8 5 3 3 1 1 7 11 10 7 6 6 10
5 5 4 4 3 3 2 2 3 3 2 2 3 3 3 2 1 2 2 2 3 3 7 6 5 6 6 7 8 8 6 2 4 5 3 7 9 10 7 4 4 7
3 3 3 3 3 2 2 3 2 1 2 2 2 2 2 2 2 1 3 3 3 4 5 5 6 6 7 9 9 10 10 6 4 6 9 11 9 7 5 6 6 5
Wind_Direction
195 197 197 195 199 192 176 170 177 184 192 194 192 197 192 194 189 190 187 183 188 188 197 205 208 210 220 220 206 200 208 218 231 243 241 237 237 229 249 256 259 235
203 201 204 199 202 198 185 185 172 178 190 196 200 193 194 186 195 189 185 188 192 199 199 204 209 210 213 215 220 216 238 236 249 233 227 222 232 226 250 253 251 251
199 204 205 205 207 206 198 193 187 178 180 196 201 195 190 190 191 194 190 187 193 202 201 203 206 211 212 215 214 223 227 233 244 253 251 237 235 217 240 254 268 267
206 203 203 208 207 214 205 190 207 198 195 185 199 198 196 191 188 191 193 193 196 203 205 203 208 208 209 212 209 220 225 228 234 235 241 253 241 222 237 242 255 269
204 205 206 203 204 206 203 201 211 214 208 214 206 195 195 190 189 192 191 198 196 207 208 210 210 212 207 209 202 211 220 228 235 227 235 250 252 225 240 223 246 261
203 205 203 202 199 202 208 211 208 209 218 205 216 203 193 184 187 189 192 196 202 208 212 214 212 216 210 210 202 207 213 220 229 220 233 242 256 249 235 228 232 240
200 199 206 204 206 203 210 213 208 203 208 214 194 212 198 188 188 192 193 201 205 208 213 212 214 216 214 211 206 213 216 217 224 218 225 240 240 257 255 247 240 239
199 199 201 204 209 210 212 212 209 202 201 204 213 215 199 202 202 202 203 206 210 212 212 213 212 214 212 206 208 213 221 217 223 221 223 232 229 237 246 244 245 241
193 195 196 200 207 209 212 214 213 208 197 205 214 222 215 212 209 212 212 210 215 215 213 213 210 213 212 208 210 210 214 219 219 218 222 228 228 233 236 235 239 237
192 193 194 199 204 208 210 210 210 210 206 210 215 222 229 221 222 221 216 214 215 216 216 218 213 210 212 212 213 212 214 218 220 221 223 224 226 229 230 226 227 229
192 188 191 198 204 207 209 206 207 205 199 197 185 207 240 250 230 220 221 209 214 215 215 216 216 212 214 218 218 217 216 218 220 222 224 224 223 223 222 215 214 215
191 188 192 196 200 206 209 203 200 195 190 194 197 206 225 240 255 243 226 221 216 216 215 213 211 211 211 215 218 218 217 219 221 221 223 224 225 223 222 213 210 211
193 193 191 193 198 201 197 197 201 201 201 208 202 204 211 234 245 246 230 212 227 227 214 208 209 210 211 213 214 213 214 216 220 223 225 226 226 224 219 214 210 210
193 192 190 191 197 197 189 185 191 198 203 202 198 205 217 226 234 234 225 206 197 209 227 222 213 213 213 215 214 213 209 212 216 219 223 225 227 222 217 212 210 211
182 186 183 182 182 186 192 191 192 198 198 201 203 209 218 221 221 225 237 238 231 220 230 234 226 224 221 218 219 221 218 218 213 215 217 221 224 224 218 214 213 212
155 148 154 154 164 178 182 186 197 203 211 223 224 220 222 224 232 236 236 233 230 232 231 232 231 225 223 223 218 216 220 223 219 216 215 216 218 221 223 218 217 212
133 144 154 167 171 159 163 184 205 205 208 215 230 239 243 247 245 243 241 239 236 234 235 234 235 225 223 217 212 212 210 218 218 218 212 210 212 212 215 218 221 218
146 152 168 199 196 175 185 202 197 202 208 212 232 245 249 247 250 246 243 243 244 247 246 246 241 237 229 224 218 215 212 210 211 216 218 219 216 213 215 214 215 216
165 164 175 187 210 230 203 179 206 222 212 198 219 231 234 231 233 240 245 244 243 247 249 247 251 248 244 243 239 230 223 218 219 214 212 223 223 218 214 211 211 213
184 183 175 177 186 234 272 272 220 226 230 214 201 208 230 259 258 236 238 239 236 238 247 253 251 248 240 238 240 239 233 223 226 220 220 219 222 225 222 216 210 210
159 179 134 91 72 320 305 280 288 295 291 291 295 290 291 280 284 296 279 259 261 258 270 273 261 291 292 261 253 256 264 245 243 248 245 239 234 226 222 221 219 214
189 198 155 138 158 168 189 215 235 258 277 293 305 309 313 314 302 277 267 265 267 281 289 285 284 302 300 318 320 178 193 185 208 236 263 282 284 272 251 240 229 223
196 206 207 170 165 174 185 179 163 178 192 204 210 227 231 223 228 231 236 248 276 273 275 278 284 290 282 263 240 218 201 198 132 77 28 350 317 300 286 266 246 228
195 192 190 183 174 181 178 173 162 172 176 184 188 197 201 202 208 220 230 224 230 247 232 257 270 272 266 266 265 254 246 236 89 30 209 258 267 261 250 248 244 236
179 174 173 167 171 175 163 172 192 204 208 195 211 202 222 222 214 238 263 264 252 249 276 274 268 266 253 248 252 250 243 228 171 216 232 253 251 255 254 252 257 254
155 155 150 153 162 159 164 194 199 203 223 207 215 199 225 249 259 238 239 257 259 261 261 258 259 263 260 251 245 242 236 237 206 184 200 219 232 240 255 255 251 250